time_stamp(utc),avg(mph),gust(mph),direction(deg),12m_air_temp(f),sonic_u(cm/s),sonic_v(cm/s),sonic_w(cm/s),pressure,2m_air_temp(f),pyranometer(W/m^2)
"2021-11-01 00:01:23+00",16.2,18.2,,,-733,16,22,1008.46,58.3,0
"2021-11-01 00:06:23+00",16.1,19.1,,,-716,-43,25,1008.59,58.3,0
"2021-11-01 00:11:23+00",14.1,19.1,,,-641,-42,29,1008.73,58.2,0
"2021-11-01 00:16:23+00",11.1,13.1,,,-483,-50,32,1008.79,58.1,0
"2021-11-01 00:21:23+00",13.1,15.1,,,-568,-65,14,1008.81,57.9,0
"2021-11-01 00:26:23+00",12.8,13.8,,,-563,-47,22,1008.83,57.7,0
"2021-11-01 00:31:23+00",14.0,16.0,,,-623,-49,6,1008.87,57.5,0
"2021-11-01 00:36:23+00",12.1,14.1,,,-535,-43,15,1008.91,57.3,0
"2021-11-01 00:41:23+00",13.0,15.0,,,-566,-99,5,1008.98,57.2,0
"2021-11-01 00:46:23+00",13.1,14.1,,,-572,-75,7,1009.09,57.2,0
"2021-11-01 00:51:23+00",13.3,14.3,,,-581,-90,5,1009.12,57.1,0
"2021-11-01 00:56:23+00",12.7,15.7,,,-556,-74,23,1009.22,57.1,0
"2021-11-01 01:01:23+00",13.0,14.0,,,-567,-85,17,1009.34,57,0
"2021-11-01 01:06:23+00",13.0,15.0,,,-579,-72,21,1009.38,56.9,0
"2021-11-01 01:11:23+00",14.6,15.6,,,-649,-60,22,1009.38,56.9,0
"2021-11-01 01:16:23+00",12.7,14.7,,,-569,-44,30,1009.5,56.8,0
"2021-11-01 01:21:23+00",12.5,14.5,,,-571,15,18,1009.53,56.7,0
"2021-11-01 01:26:23+00",13.1,14.1,,,-596,-15,24,1009.62,56.6,0
"2021-11-01 01:31:23+00",14.4,15.4,,,-662,2,38,1009.62,56.5,0
"2021-11-01 01:36:23+00",14.9,15.9,,,-670,4,22,1009.76,56.6,0
"2021-11-01 01:41:23+00",14.0,16.0,,,-626,-2,25,1009.83,56.6,0
"2021-11-01 01:46:23+00",13.3,15.3,,,-594,-56,11,1009.97,56.5,0
"2021-11-01 01:51:23+00",12.6,13.6,,,-560,-54,17,1010.11,56.3,0
"2021-11-01 01:56:23+00",13.3,15.3,,,-578,-74,20,1010.2,56.2,0
"2021-11-01 02:01:23+00",13.3,15.3,,,-588,-52,22,1010.28,56.1,0
"2021-11-01 02:06:23+00",13.2,16.2,,,-595,-39,19,1010.28,56.1,0
"2021-11-01 02:11:23+00",15.0,17.0,,,-676,5,28,1010.33,55.9,0
"2021-11-01 02:16:23+00",13.8,17.8,,,-612,50,40,1010.39,55.8,0
"2021-11-01 02:21:23+00",15.0,18.0,,,-673,80,34,1010.47,55.8,0
"2021-11-01 02:26:23+00",15.1,17.1,,,-671,106,28,1010.45,55.8,0
"2021-11-01 02:31:23+00",15.8,16.8,,,-707,83,36,1010.47,55.8,0
"2021-11-01 02:36:23+00",14.0,16.0,,,-634,95,55,1010.49,55.8,0
"2021-11-01 02:41:23+00",15.8,17.8,,,-701,66,27,1010.59,55.7,0
"2021-11-01 02:46:23+00",14.9,16.9,,,-653,65,48,1010.65,55.7,0
"2021-11-01 02:51:23+00",15.7,18.7,,,-699,71,53,1010.71,55.6,0
"2021-11-01 02:56:23+00",16.1,18.1,,,-719,104,35,1010.84,55.5,0
"2021-11-01 03:01:23+00",17.8,19.8,,,-804,155,30,1010.96,55.4,0
"2021-11-01 03:06:23+00",17.6,19.6,,,-782,165,20,1010.88,55.4,0
"2021-11-01 03:11:23+00",18.1,22.1,,,-786,159,44,1011,55.4,0
"2021-11-01 03:16:23+00",17.7,19.7,,,-761,226,39,1010.99,55.2,0
"2021-11-01 03:21:23+00",15.7,17.7,,,-668,198,31,1010.99,55.1,0
"2021-11-01 03:26:23+00",12.6,14.6,,,-552,127,52,1010.97,55.1,0
"2021-11-01 03:31:23+00",14.3,16.3,,,-614,160,56,1010.92,55.1,0
"2021-11-01 03:36:23+00",16.0,18.0,,,-700,215,28,1010.92,54.9,0
"2021-11-01 03:41:23+00",16.3,18.3,,,-738,163,32,1010.94,55,0
"2021-11-01 03:46:23+00",15.6,16.6,,,-690,177,42,1011.02,55,0
"2021-11-01 03:51:23+00",16.8,19.8,,,-725,218,31,1010.93,55,0
"2021-11-01 03:56:23+00",14.6,18.6,,,-666,151,24,1011.07,55,0
"2021-11-01 04:01:23+00",14.7,17.7,,,-630,163,32,1011.08,55,0
"2021-11-01 04:06:23+00",14.4,16.4,,,-630,141,41,1011.06,55,0
"2021-11-01 04:11:23+00",13.7,16.7,,,-606,190,34,1011.16,54.9,0
"2021-11-01 04:16:23+00",15.4,16.4,,,-692,179,38,1011.24,54.8,0
"2021-11-01 04:21:23+00",16.3,17.3,,,-724,157,39,1011.34,54.7,0
"2021-11-01 04:26:23+00",15.0,17.0,,,-684,48,18,1011.49,54.7,0
"2021-11-01 04:31:23+00",13.5,15.5,,,-615,73,39,1011.48,54.6,0
"2021-11-01 04:36:23+00",15.5,17.5,,,-693,75,22,1011.54,54.5,0
"2021-11-01 04:41:23+00",12.8,14.8,,,-571,5,26,1011.62,54.4,0
"2021-11-01 04:46:23+00",12.9,14.9,,,-578,6,26,1011.77,54.1,0
"2021-11-01 04:51:23+00",11.6,13.6,,,-500,32,31,1011.7,54,0
"2021-11-01 04:56:23+00",11.9,12.9,,,-527,-24,21,1011.75,54,0
"2021-11-01 05:01:23+00",12.8,13.8,,,-563,-27,18,1011.83,53.8,0
"2021-11-01 05:06:23+00",11.9,13.9,,,-524,-55,17,1011.85,53.7,0
"2021-11-01 05:11:23+00",11.9,14.9,,,-523,-72,28,1011.91,53.7,0
"2021-11-01 05:16:23+00",12.0,13.0,,,-517,-79,35,1011.84,53.6,0
"2021-11-01 05:21:23+00",12.3,14.3,,,-540,-78,9,1011.9,53.6,0
"2021-11-01 05:26:23+00",12.1,14.1,,,-529,-74,12,1011.93,53.5,0
"2021-11-01 05:31:23+00",12.5,14.5,,,-536,-128,15,1012.09,53.4,0
"2021-11-01 05:36:23+00",12.4,15.4,,,-515,-167,18,1012.11,53.4,0
"2021-11-01 05:41:23+00",10.6,11.6,,,-441,-117,12,1012.16,53.3,0
"2021-11-01 05:46:23+00",12.8,14.8,,,-511,-176,26,1012.11,53.2,0
"2021-11-01 05:51:23+00",11.9,14.9,,,-470,-164,18,1012.12,53.1,0
"2021-11-01 05:56:23+00",11.0,13.0,,,-445,-190,22,1012.16,52.9,0
"2021-11-01 06:01:23+00",11.3,12.3,,,-462,-191,17,1012.17,52.8,0
"2021-11-01 06:06:23+00",11.8,12.8,,,-482,-166,17,1012.21,52.8,0
"2021-11-01 06:11:23+00",11.7,13.7,,,-475,-175,34,1012.21,52.8,0
"2021-11-01 06:16:23+00",12.2,14.2,,,-499,-155,24,1012.33,52.7,0
"2021-11-01 06:21:23+00",12.4,15.4,,,-513,-185,17,1012.28,52.8,0
"2021-11-01 06:26:23+00",12.9,15.9,,,-545,-134,14,1012.42,52.9,0
"2021-11-01 06:31:23+00",16.7,19.7,,,-724,-148,35,1012.45,53.1,0
"2021-11-01 06:36:23+00",13.7,15.7,,,-564,-157,41,1012.38,53.3,0
"2021-11-01 06:41:23+00",14.9,17.9,,,-644,-155,39,1012.5,53.5,0
"2021-11-01 06:46:23+00",15.4,18.4,,,-662,-149,33,1012.51,53.5,0
"2021-11-01 06:51:23+00",15.5,18.5,,,-664,-127,67,1012.52,53.6,0
"2021-11-01 06:56:23+00",13.8,15.8,,,-600,-124,23,1012.6,53.6,0
"2021-11-01 07:01:23+00",14.8,17.8,,,-595,-250,32,1012.69,53.6,0
"2021-11-01 07:06:23+00",12.7,15.7,,,-521,-175,28,1012.81,53.5,0
"2021-11-01 07:11:23+00",13.8,15.8,,,-577,-177,26,1012.82,53.3,0
"2021-11-01 07:16:23+00",13.5,15.5,,,-549,-210,26,1012.83,53.3,0
"2021-11-01 07:21:23+00",14.4,16.4,,,-610,-327,26,1012.64,53.2,0
"2021-11-01 07:26:23+00",14.7,16.7,,,-596,-189,15,1012.72,53.1,0
"2021-11-01 07:31:23+00",15.3,17.3,,,-616,-225,34,1012.73,53.1,0
"2021-11-01 07:36:23+00",14.6,17.6,,,-602,-171,23,1012.78,53.1,0
"2021-11-01 07:41:23+00",14.8,16.8,,,-629,-165,28,1012.82,53.2,0
"2021-11-01 07:46:23+00",15.2,19.2,,,-672,-113,26,1013,53.2,0
"2021-11-01 07:51:23+00",15.9,19.9,,,-691,-121,39,1012.94,53.4,0
"2021-11-01 07:56:23+00",17.7,21.7,,,-795,-27,13,1012.98,53.5,0
"2021-11-01 08:01:23+00",15.9,17.9,,,-718,-4,18,1013.04,53.5,0
"2021-11-01 08:06:23+00",16.2,19.2,,,-737,35,37,1013.02,53.5,0
"2021-11-01 08:11:23+00",15.3,17.3,,,-692,79,32,1013.11,53.7,0
"2021-11-01 08:16:23+00",16.0,19.0,,,-722,126,72,1013.06,53.8,0
"2021-11-01 08:21:23+00",16.5,19.5,,,-747,76,11,1013.09,53.9,0
"2021-11-01 08:26:23+00",15.0,19.0,,,-693,20,18,1013.14,53.9,0
"2021-11-01 08:31:23+00",15.7,17.7,,,-704,71,22,1013.42,53.9,0
"2021-11-01 08:36:23+00",13.4,15.4,,,-589,45,45,1013.41,53.9,0
"2021-11-01 08:41:23+00",13.7,16.7,,,-620,47,42,1013.32,53.9,0
"2021-11-01 08:46:23+00",13.8,16.8,,,-612,22,33,1013.38,53.8,0
"2021-11-01 08:51:23+00",13.1,15.1,,,-594,11,29,1013.48,53.8,0
"2021-11-01 08:56:23+00",14.6,17.6,,,-662,60,41,1013.45,53.8,0
"2021-11-01 09:01:23+00",14.8,16.8,,,-664,47,31,1013.51,53.7,0
"2021-11-01 09:06:23+00",15.0,18.0,,,-682,35,39,1013.51,53.7,0
"2021-11-01 09:11:23+00",13.1,15.1,,,-578,67,51,1013.54,53.8,0
"2021-11-01 09:16:23+00",13.1,16.1,,,-590,15,31,1013.65,53.7,0
"2021-11-01 09:21:23+00",15.5,17.5,,,-697,-58,5,1013.83,53.5,0
"2021-11-01 09:26:23+00",12.1,14.1,,,-543,-58,17,1013.98,53.3,0
"2021-11-01 09:31:23+00",12.3,16.3,,,-553,-55,24,1014,53.2,0
"2021-11-01 09:36:23+00",12.8,14.8,,,-562,-14,20,1013.96,53.1,0
"2021-11-01 09:41:23+00",12.8,15.8,,,-579,-20,0,1014.12,53.1,0
"2021-11-01 09:46:23+00",16.3,19.3,,,-730,-20,23,1014.2,53.1,0
"2021-11-01 09:51:23+00",12.7,14.7,,,-557,-27,23,1014.28,53.1,0
"2021-11-01 09:56:23+00",14.9,16.9,,,-650,-54,33,1014.29,53.1,0
"2021-11-01 10:01:23+00",14.9,16.9,,,-654,-49,25,1014.4,53.1,0
"2021-11-01 10:06:23+00",13.8,15.8,,,-611,-50,16,1014.55,53.2,0
"2021-11-01 10:11:23+00",14.4,16.4,,,-636,-32,23,1014.55,53.2,0
"2021-11-01 10:16:23+00",12.8,14.8,,,-568,-16,12,1014.54,53.2,0
"2021-11-01 10:21:23+00",12.9,14.9,,,-579,-16,23,1014.56,53.3,0
"2021-11-01 10:26:23+00",11.0,13.0,,,-490,-31,21,1014.6,53.3,0
"2021-11-01 10:31:23+00",11.2,14.2,,,-505,-13,40,1014.8,53.2,0
"2021-11-01 10:36:23+00",10.9,13.9,,,-468,-1,60,1014.83,53.2,0
"2021-11-01 10:41:23+00",10.9,12.9,,,-486,-21,1,1014.85,53.1,0
"2021-11-01 10:46:23+00",11.5,15.5,,,-521,-53,12,1014.89,53,0
"2021-11-01 10:51:23+00",10.9,14.9,,,-468,-19,27,1015.03,53,0
"2021-11-01 10:56:23+00",11.7,13.7,,,-506,-88,22,1015.15,53,0
"2021-11-01 11:01:23+00",12.5,14.5,,,-551,-34,8,1015.16,53,0
"2021-11-01 11:06:23+00",12.5,17.5,,,-552,-52,28,1015.28,53,0
"2021-11-01 11:11:23+00",13.5,15.5,,,-612,-14,7,1015.36,53,0
"2021-11-01 11:16:23+00",15.4,19.4,,,-703,2,7,1015.35,53,0
"2021-11-01 11:21:23+00",14.0,16.0,,,-619,53,30,1015.44,53.1,0
"2021-11-01 11:26:23+00",15.7,17.7,,,-713,52,28,1015.53,53.2,0
"2021-11-01 11:31:23+00",16.1,18.1,,,-715,90,25,1015.67,53.3,0
"2021-11-01 11:36:23+00",14.1,16.1,,,-642,79,35,1015.74,53.4,0
"2021-11-01 11:41:23+00",15.1,16.1,,,-668,85,17,1015.77,53.4,0
"2021-11-01 11:46:23+00",15.1,17.1,,,-683,67,25,1015.92,53.4,0
"2021-11-01 11:51:23+00",14.6,16.6,,,-653,78,26,1016.04,53.5,0
"2021-11-01 11:56:23+00",17.5,19.5,,,-792,84,31,1016.07,53.5,0
"2021-11-01 12:01:23+00",15.5,18.5,,,-710,61,24,1016.25,53.7,0.2
"2021-11-01 12:06:23+00",15.5,16.5,,,-684,97,46,1016.4,53.9,1
"2021-11-01 12:11:23+00",12.4,15.4,,,-553,21,44,1016.51,54.2,5
"2021-11-01 12:16:23+00",14.6,16.6,,,-646,-17,30,1016.63,54.5,9.9
"2021-11-01 12:21:23+00",11.4,13.4,,,-524,-34,47,1016.73,54.7,19.3
"2021-11-01 12:26:23+00",14.6,15.6,,,-657,24,42,1016.89,55.1,28
"2021-11-01 12:31:23+00",18.3,20.3,,,-824,106,20,1017.02,55.4,35
"2021-11-01 12:36:23+00",16.1,18.1,,,-730,146,50,1017.06,55.6,43.1
"2021-11-01 12:41:23+00",13.6,16.6,,,-630,153,49,1017.21,55.8,51.5
"2021-11-01 12:46:23+00",18.4,20.4,,,-815,164,40,1017.41,56,61.5
"2021-11-01 12:51:23+00",19.6,21.6,,,-866,170,26,1017.47,56.1,70.5
"2021-11-01 12:56:23+00",18.4,19.4,,,-807,183,35,1017.6,56.2,78.3
"2021-11-01 13:01:23+00",17.7,19.7,,,-783,218,40,1017.64,56.3,86.6
"2021-11-01 13:06:23+00",17.2,21.2,,,-728,262,43,1017.71,56.5,96.7
"2021-11-01 13:11:23+00",17.5,20.5,,,-756,318,29,1017.86,56.6,102
"2021-11-01 13:16:23+00",15.8,18.8,,,-680,214,31,1017.92,56.7,111.6
"2021-11-01 13:21:23+00",15.9,18.9,,,-663,294,21,1018.06,56.9,119.3
"2021-11-01 13:26:23+00",15.5,17.5,,,-621,312,87,1018.14,57.1,127.8
"2021-11-01 13:31:23+00",19.9,21.9,,,-807,423,28,1018.17,57.2,137.8
"2021-11-01 13:36:23+00",18.2,22.2,,,-731,398,22,1018.19,57.1,142.4
"2021-11-01 13:41:23+00",14.6,18.6,,,-544,374,42,1018.22,57.2,152.3
"2021-11-01 13:46:23+00",16.9,19.9,,,-659,380,37,1018.3,57.4,157.5
"2021-11-01 13:51:23+00",15.2,21.2,,,-638,293,45,1018.32,57.7,162.4
"2021-11-01 13:56:23+00",16.7,20.7,,,-653,418,29,1018.23,57.9,171
"2021-11-01 14:01:23+00",19.1,22.1,,,-752,428,33,1018.14,58,173.9
"2021-11-01 14:06:23+00",17.7,21.7,,,-681,397,53,1018.14,58.1,182.1
"2021-11-01 14:11:23+00",17.1,19.1,,,-728,308,36,1018.25,58.5,186
"2021-11-01 14:16:23+00",15.2,18.2,,,-608,314,42,1018.31,58.7,192.6
"2021-11-01 14:21:23+00",15.5,19.5,,,-563,394,57,1018.3,58.6,190.5
"2021-11-01 14:26:23+00",18.5,21.5,,,-713,439,27,1018.39,58.7,205.2
"2021-11-01 14:31:23+00",14.9,17.9,,,-578,353,64,1018.34,58.9,210.5
"2021-11-01 14:36:23+00",15.0,17.0,,,-639,244,35,1018.37,59.2,217.3
"2021-11-01 14:41:23+00",19.5,25.5,,57.8,-598,583,52,1018.27,59.4,224.5
"2021-11-01 14:46:23+00",21.4,26.4,,,-649,716,39,1018.4,58.9,207.6
"2021-11-01 14:51:23+00",23.9,26.9,,57.9,-776,744,41,1018.47,58.7,234.1
"2021-11-01 14:56:23+00",18.9,21.9,,,-625,559,80,1018.52,58.9,239.3
"2021-11-01 15:01:23+00",20.4,26.4,,,-859,375,52,1018.41,59.3,242.3
"2021-11-01 15:06:23+00",21.8,24.8,,,-837,544,38,1018.47,59.3,246.9
"2021-11-01 15:11:23+00",18.6,22.6,,,-740,369,35,1018.57,59.4,253
"2021-11-01 15:16:23+00",22.2,26.2,,,-921,395,68,1018.54,59.8,259.8
"2021-11-01 15:21:23+00",23.2,26.2,,,-887,592,47,1018.68,59.8,245.4
"2021-11-01 15:26:23+00",25.8,31.8,,,-956,710,49,1018.56,59.5,268.9
"2021-11-01 15:31:23+00",20.4,23.4,,,-802,463,51,1018.68,59.5,273.9
"2021-11-01 15:36:23+00",22.2,27.2,,,-740,674,66,1018.57,59.5,277.5
"2021-11-01 15:41:23+00",21.2,25.2,,,-842,493,54,1018.64,59.6,280.1
"2021-11-01 15:46:23+00",22.4,27.4,,,-857,542,38,1018.68,59.7,285.4
"2021-11-01 15:51:23+00",21.4,25.4,,,-802,532,46,1018.65,59.7,286.3
"2021-11-01 15:56:23+00",18.5,20.5,,,-711,457,71,1018.73,59.9,293.7
"2021-11-01 16:01:23+00",17.9,21.9,,,-698,434,65,1018.88,60.3,296.4
"2021-11-01 16:06:23+00",19.5,23.5,,,-713,513,45,1018.79,60.3,300.3
"2021-11-01 16:11:23+00",18.9,23.9,,,-770,417,34,1018.88,60.4,301.1
"2021-11-01 16:16:23+00",18.2,21.2,,,-681,474,31,1018.91,60.5,301.6
"2021-11-01 16:21:23+00",15.7,17.7,,58.9,-671,248,25,1018.86,60.8,301.6
"2021-11-01 16:26:23+00",16.2,18.2,,,-645,326,34,1018.77,60.9,303.8
"2021-11-01 16:31:23+00",13.9,16.9,,,-537,333,51,1018.71,60.9,304.7
"2021-11-01 16:36:23+00",13.6,15.6,,,-492,349,28,1018.72,60.8,308.4
"2021-11-01 16:41:23+00",14.4,16.4,,,-614,275,37,1018.66,61.2,327.7
"2021-11-01 16:46:23+00",14.6,16.6,,,-603,264,42,1018.63,61.4,318.4
"2021-11-01 16:51:23+00",13.9,14.9,,,-544,283,16,1018.61,61.4,320.5
"2021-11-01 16:56:23+00",14.6,16.6,,,-571,329,16,1018.59,61.4,330.2
"2021-11-01 17:01:23+00",15.6,17.6,,,-535,471,31,1018.53,61,325.5
"2021-11-01 17:06:23+00",15.1,17.1,,,-559,400,41,1018.59,60.8,109.9
"2021-11-01 17:11:23+00",14.7,16.7,,,-488,464,51,1018.61,60.7,316.6
"2021-11-01 17:16:23+00",18.3,21.3,,,-632,515,47,1018.59,60,215
"2021-11-01 17:21:23+00",14.0,17.0,,,-498,397,48,1018.63,60.3,238.3
"2021-11-01 17:26:23+00",15.1,17.1,,,-592,329,39,1018.55,60.4,292.5
"2021-11-01 17:31:23+00",18.3,21.3,,59.2,-627,519,52,1018.46,60.8,290.3
"2021-11-01 17:36:23+00",11.6,14.6,,,-409,315,69,1018.48,60.9,289.3
"2021-11-01 17:41:23+00",19.8,22.8,,,-831,363,35,1018.44,61,288.2
"2021-11-01 17:46:23+00",21.7,24.7,,,-808,516,65,1018.36,60.8,285.2
"2021-11-01 17:51:23+00",16.4,20.4,,,-609,406,49,1018.39,60.5,284.2
"2021-11-01 17:56:23+00",17.5,19.5,,,-629,498,44,1018.41,60.6,278.4
"2021-11-01 18:01:23+00",10.7,14.7,,,-333,303,36,1018.5,60.6,272.3
"2021-11-01 18:06:23+00",15.1,17.1,,,-463,482,51,1018.38,60.7,270.4
"2021-11-01 18:11:23+00",14.0,18.0,,,-552,340,54,1018.44,61,265.5
"2021-11-01 18:16:23+00",11.8,12.8,,,-377,366,11,1018.46,60.9,262.2
"2021-11-01 18:21:23+00",13.7,15.7,,,-524,316,47,1018.53,61.1,257.7
"2021-11-01 18:26:23+00",10.8,12.8,,59.7,-356,309,56,1018.54,61.3,252.9
"2021-11-01 18:31:23+00",15.3,20.3,,59.3,-695,3,48,1018.55,61.8,240.9
"2021-11-01 18:36:23+00",15.8,18.8,,59.4,-653,280,35,1018.62,61.6,241.7
"2021-11-01 18:41:23+00",15.5,18.5,,,-558,398,40,1018.66,61.4,237.1
"2021-11-01 18:46:23+00",17.0,19.0,,,-733,245,49,1018.7,61.3,233.7
"2021-11-01 18:51:23+00",15.9,18.9,,,-624,372,33,1018.65,61.2,229.1
"2021-11-01 18:56:23+00",19.1,21.1,,,-723,480,25,1018.7,60.9,228
"2021-11-01 19:01:23+00",18.3,21.3,,,-725,408,60,1018.72,60.9,221.2
"2021-11-01 19:06:23+00",14.8,18.8,,,-501,419,41,1018.87,60.7,214
"2021-11-01 19:11:23+00",18.2,21.2,,,-759,361,36,1018.87,61,205.2
"2021-11-01 19:16:23+00",15.0,18.0,,,-659,205,35,1018.86,61.4,199.6
"2021-11-01 19:21:23+00",16.8,20.8,,,-724,320,42,1018.78,61.4,194.5
"2021-11-01 19:26:23+00",17.3,20.3,,,-772,228,53,1018.8,61.5,189.4
"2021-11-01 19:31:23+00",18.2,20.2,,59.2,-722,416,48,1018.9,61,186.4
"2021-11-01 19:36:23+00",15.4,17.4,,,-606,316,45,1018.9,60.6,177.4
"2021-11-01 19:41:23+00",17.4,20.4,,,-718,335,35,1018.86,61,174.7
"2021-11-01 19:46:23+00",14.8,17.8,,,-556,391,53,1018.83,61.1,165.5
"2021-11-01 19:51:23+00",17.6,19.6,,,-700,382,30,1018.87,60.9,156.7
"2021-11-01 19:56:23+00",15.9,18.9,,,-516,486,39,1018.87,60.6,150.9
"2021-11-01 20:01:23+00",17.1,18.1,,59.2,-462,616,16,1018.83,60.2,144.7
"2021-11-01 20:06:23+00",14.0,16.0,,59.4,-430,448,28,1018.77,60.3,137.7
"2021-11-01 20:11:23+00",14.8,17.8,,,-277,601,2,1018.73,60.2,130.6
"2021-11-01 20:16:23+00",14.8,16.8,,,-549,359,48,1018.77,60.1,121.1
"2021-11-01 20:21:23+00",12.8,14.8,,,-474,336,38,1018.93,59.9,113.3
"2021-11-01 20:26:23+00",13.1,16.1,,59,-552,265,35,1018.98,60.3,104.4
"2021-11-01 20:31:23+00",14.2,17.2,,,-330,546,45,1018.99,60.1,92.8
"2021-11-01 20:36:23+00",14.0,16.0,,,-450,432,35,1019.06,59.7,85.7
"2021-11-01 20:41:23+00",13.0,15.0,,,-380,438,28,1019.23,59.6,75.4
"2021-11-01 20:46:23+00",11.6,13.6,,,-466,262,24,1019.34,59.6,66.3
"2021-11-01 20:51:23+00",11.8,13.8,,58.9,-518,158,26,1019.45,60.1,56.5
"2021-11-01 20:56:23+00",12.3,14.3,,58.8,-535,143,30,1019.46,60.4,46.3
"2021-11-01 21:01:23+00",11.8,12.8,,,-513,149,36,1019.4,60.5,36.4
"2021-11-01 21:06:23+00",13.1,15.1,,58.7,-518,256,38,1019.36,60.3,25
"2021-11-01 21:11:23+00",14.2,16.2,,,-609,210,33,1019.48,60.1,17.2
"2021-11-01 21:16:23+00",12.5,15.5,,58.5,-484,313,56,1019.64,59.7,7
"2021-11-01 21:21:23+00",11.1,13.1,,58.4,-452,226,45,1019.69,59.3,1.5
"2021-11-01 21:26:23+00",12.0,15.0,,,-498,225,21,1019.74,59.1,0.6
"2021-11-01 21:31:23+00",15.6,16.6,,,-647,286,34,1019.77,58.7,0
"2021-11-01 21:36:23+00",15.5,18.5,,,-671,225,30,1019.78,58.3,0
"2021-11-01 21:41:23+00",13.1,14.1,,57.8,-569,173,33,1019.81,58,0
"2021-11-01 21:46:23+00",15.1,16.1,,,-672,167,27,1019.96,57.6,0
"2021-11-01 21:51:23+00",11.8,13.8,,57.6,-514,134,46,1020.05,57.3,0
"2021-11-01 21:56:23+00",13.4,14.4,,57.6,-613,118,25,1020.1,57.1,0
"2021-11-01 22:01:23+00",12.6,14.6,,57.5,-571,115,37,1020.15,57,0
"2021-11-01 22:06:23+00",13.9,14.9,,,-617,90,22,1020.26,56.8,0
"2021-11-01 22:11:23+00",12.0,13.0,,56.8,-533,2,17,1020.31,56.5,0
"2021-11-01 22:16:23+00",11.7,12.7,,,-514,18,19,1020.29,56,0
"2021-11-01 22:21:23+00",10.5,13.5,,,-466,40,22,1020.32,55.7,0
"2021-11-01 22:26:23+00",11.5,13.5,,56.4,-512,59,28,1020.43,55.6,0
"2021-11-01 22:31:23+00",11.1,12.1,,,-488,67,48,1020.51,55.6,0
"2021-11-01 22:36:23+00",13.7,16.7,,,-619,115,44,1020.49,55.6,0
"2021-11-01 22:41:23+00",13.8,15.8,,,-635,95,24,1020.51,55.6,0
"2021-11-01 22:46:23+00",12.8,14.8,,,-563,72,33,1020.53,55.6,0
"2021-11-01 22:51:23+00",12.4,14.4,,56.2,-552,61,28,1020.68,55.5,0
"2021-11-01 22:56:23+00",11.0,13.0,,55.9,-513,71,28,1020.65,55.4,0
"2021-11-01 23:01:23+00",13.2,15.2,,55.8,-583,106,29,1020.63,55.3,0
"2021-11-01 23:06:23+00",13.7,14.7,,55.7,-607,152,39,1020.63,55.1,0
"2021-11-01 23:11:23+00",10.5,11.5,,,-463,107,39,1020.68,54.9,0
"2021-11-01 23:16:23+00",11.4,12.4,,,-508,100,27,1020.86,54.7,0
"2021-11-01 23:21:23+00",11.1,13.1,,,-487,121,34,1020.84,54.6,0
"2021-11-01 23:26:23+00",14.0,15.0,,,-614,160,21,1020.86,54.5,0
"2021-11-01 23:31:23+00",12.5,14.5,,55,-551,141,27,1020.98,54.3,0
"2021-11-01 23:36:23+00",11.4,12.4,,54.7,-491,159,31,1021.06,54.1,0
"2021-11-01 23:41:23+00",13.0,14.0,,54.4,-557,175,28,1021.04,53.8,0
"2021-11-01 23:46:23+00",10.7,11.7,,54.2,-451,155,32,1021,53.5,0
"2021-11-01 23:51:23+00",11.1,13.1,,,-476,140,18,1021.04,53.3,0
"2021-11-01 23:56:23+00",10.9,11.9,,,-482,115,21,1021.07,53.3,0
